Weather in Saylyg

Russia / Tyva Republic     51°07′19″N   93°41′00″E
temp.,
°C
wind,
m/s
gust,
m/s
humid.,
%
clouds,
%
prec.,
mm/h
press.,
hPa
HPBL,
m
5 march, fri
fri501:00−15s55780 0.0 103287
04:00−15s66740 0.0 1031118
07:00−15s677717 0.0 1031143
10:00−11s687129 0.0 1029436
13:00−9s687265 0.0 1028478
16:00−11s5776100 0.0 1025360
19:00−14ssw4576100 0.0 102882
22:00−12ssw3378100 0.0 103126
6 march, sat
sat601:00−14ssw227452 0.0 103420
04:00−14s33720 0.0 103425
07:00−13s446914 0.0 103555
10:00−8ssw457221 0.0 1034215
13:00−6ssw467157 0.0 1031355
16:00−8s457382 0.0 1027241
19:00−12s566255 0.0 102884
22:00−12s566614 0.0 102890
7 march, sun
sun701:00−12s556854 0.0 102881
04:00−13s54684 0.0 102672
07:00−13s446812 0.0 102863
10:00−8s347318 0.0 1027163
13:00−6ssw337458 0.0 1026247
16:00−7s3476100 0.0 1025188
19:00−11s4464100 0.0 102751
22:00−11ssw3359100 0.0 102930
8 march, mon
mon801:00−12s235683 0.0 103021
04:00−11s235464 0.0 103021
07:00−12s446242 0.0 103236
10:00−6s34710 0.0 1030167
13:00−5s45704 0.0 1028313
16:00−6s45720 0.0 1026231
19:00−11s54670 0.0 102773
22:00−11s546715 0.0 102767
9 march, tue
tue901:00−11s546810 0.0 102669
04:00−11ssw337152 0.0 102734
07:00−10wsw116775 0.0 103021
10:00−6n1173100 0.0 1030175
13:00−4n218173 0.0 1029337
16:00−2ese018859 0.0 1028250
19:00−9s338043 0.0 103024
22:00−10s336841 0.0 103030